TimeEDT,TemperatureF,Dew PointF,Humidity,Sea Level PressureIn,VisibilityMPH,Wind Direction,Wind SpeedMPH,Gust SpeedMPH,PrecipitationIn,Events,Conditions,WindDirDegrees,DateUTC
12:53 AM,55.9,54.0,93,30.08,10.0,Calm,Calm,-,N/A,,Clear,0,2013-09-04 04:53:00
1:53 AM,55.0,54.0,96,30.08,10.0,Calm,Calm,-,N/A,,Clear,0,2013-09-04 05:53:00
2:53 AM,54.0,53.1,97,30.09,10.0,Calm,Calm,-,N/A,,Clear,0,2013-09-04 06:53:00
3:53 AM,53.1,52.0,96,30.09,10.0,Calm,Calm,-,N/A,,Clear,0,2013-09-04 07:53:00
4:53 AM,53.1,52.0,96,30.09,10.0,Calm,Calm,-,N/A,,Clear,0,2013-09-04 08:53:00
5:53 AM,53.1,51.1,93,30.10,8.0,Calm,Calm,-,N/A,,Clear,0,2013-09-04 09:53:00
6:53 AM,52.0,51.1,97,30.11,4.0,Calm,Calm,-,N/A,,Clear,0,2013-09-04 10:53:00
6:55 AM,51.8,51.8,100,30.12,1.5,Calm,Calm,-,N/A,,Clear,0,2013-09-04 10:55:00
7:02 AM,51.8,50.0,94,30.12,5.0,Calm,Calm,-,N/A,,Clear,0,2013-09-04 11:02:00
7:53 AM,54.0,52.0,93,30.14,5.0,Calm,Calm,-,N/A,,Clear,0,2013-09-04 11:53:00
8:53 AM,61.0,57.9,90,30.15,10.0,Calm,Calm,-,N/A,,Clear,0,2013-09-04 12:53:00
9:53 AM,69.1,59.0,70,30.15,10.0,Calm,Calm,-,N/A,,Clear,0,2013-09-04 13:53:00
10:53 AM,73.9,55.9,53,30.16,10.0,NNW,3.5,-,N/A,,Clear,340,2013-09-04 14:53:00
11:53 AM,75.0,55.9,51,30.17,10.0,NNE,6.9,-,N/A,,Clear,20,2013-09-04 15:53:00
12:53 PM,75.0,55.0,50,30.16,10.0,Calm,Calm,-,N/A,,Clear,0,2013-09-04 16:53:00
1:53 PM,78.1,55.0,45,30.15,10.0,North,4.6,-,N/A,,Clear,350,2013-09-04 17:53:00
2:53 PM,78.1,54.0,43,30.14,10.0,Calm,Calm,-,N/A,,Clear,0,2013-09-04 18:53:00
3:53 PM,80.1,57.0,45,30.13,10.0,West,4.6,-,N/A,,Clear,260,2013-09-04 19:53:00
4:53 PM,81.0,57.9,45,30.13,10.0,Variable,3.5,-,N/A,,Clear,0,2013-09-04 20:53:00
5:53 PM,80.1,57.0,45,30.12,10.0,Variable,3.5,-,N/A,,Clear,0,2013-09-04 21:53:00
6:53 PM,78.1,57.9,50,30.12,10.0,WNW,3.5,-,N/A,,Clear,290,2013-09-04 22:53:00
7:53 PM,72.0,63.0,73,30.12,10.0,Calm,Calm,-,N/A,,Clear,0,2013-09-04 23:53:00
8:53 PM,66.0,62.1,87,30.12,10.0,Calm,Calm,-,N/A,,Clear,0,2013-09-05 00:53:00
9:53 PM,62.1,60.1,93,30.14,10.0,Calm,Calm,-,N/A,,Clear,0,2013-09-05 01:53:00
10:53 PM,61.0,59.0,93,30.14,8.0,Calm,Calm,-,N/A,,Clear,0,2013-09-05 02:53:00
11:53 PM,60.1,57.9,93,30.15,8.0,Calm,Calm,-,N/A,,Clear,0,2013-09-05 03:53:00